timestamp,wind_dir_avg,wind_spd_max_dir,wind_spd_avg,wind_spd_gust,battery_voltage,lat,long
2017-12-19 00:00:00+00:00,280.0,288.0,4.93,5.56,,47.59359,-54.27349
2017-12-19 00:10:00+00:00,288.0,305.0,4.24,5.75,,47.59359,-54.27349
2017-12-19 00:20:00+00:00,296.0,306.0,4.84,6.73,,47.59359,-54.27349
2017-12-19 00:30:00+00:00,293.0,285.0,4.42,5.04,,47.59359,-54.27349
2017-12-19 00:40:00+00:00,302.0,299.0,5.85,6.85,,47.59359,-54.27349
2017-12-19 00:50:00+00:00,285.0,286.0,4.37,6.57,,47.59359,-54.27349
2017-12-19 01:00:00+00:00,299.0,307.0,5.89,7.27,,47.59359,-54.27349
2017-12-19 01:10:00+00:00,301.0,298.0,4.91,6.88,,47.59359,-54.27349
2017-12-19 01:20:00+00:00,305.0,300.0,6.26,8.07,,47.59359,-54.27349
2017-12-19 01:30:00+00:00,309.0,303.0,5.97,7.12,,47.59359,-54.27349
2017-12-19 01:40:00+00:00,307.0,310.0,6.64,7.92,,47.59359,-54.27349
2017-12-19 01:50:00+00:00,307.0,306.0,5.66,6.97,,47.59359,-54.27349
2017-12-19 02:00:00+00:00,308.0,300.0,5.27,6.61,,47.59359,-54.27349
2017-12-19 02:10:00+00:00,323.0,323.0,5.42,6.44,,47.59359,-54.27349
2017-12-19 02:20:00+00:00,334.0,324.0,4.64,5.43,,47.59359,-54.27349
2017-12-19 02:30:00+00:00,340.0,332.0,4.62,6.07,,47.59359,-54.27349
2017-12-19 02:40:00+00:00,318.0,315.0,4.8,6.32,,47.59359,-54.27349
2017-12-19 02:50:00+00:00,321.0,319.0,6.16,6.83,,47.59359,-54.27349
2017-12-19 03:00:00+00:00,327.0,326.0,5.56,6.61,,47.59359,-54.27349
2017-12-19 03:10:00+00:00,315.0,318.0,6.5,7.35,,47.59359,-54.27349
2017-12-19 03:20:00+00:00,310.0,314.0,5.87,7.15,,47.59359,-54.27349
2017-12-19 03:30:00+00:00,300.0,302.0,6.07,7.5,,47.59359,-54.27349
2017-12-19 03:40:00+00:00,304.0,309.0,5.43,6.6,,47.59359,-54.27349
2017-12-19 03:50:00+00:00,301.0,307.0,5.23,6.2,,47.59359,-54.27349
2017-12-19 04:00:00+00:00,284.0,278.0,5.19,5.86,,47.59359,-54.27349
2017-12-19 04:10:00+00:00,296.0,294.0,4.76,5.77,,47.59359,-54.27349
2017-12-19 04:20:00+00:00,271.0,279.0,3.96,4.64,,47.59359,-54.27349
2017-12-19 04:30:00+00:00,270.0,276.0,4.4,4.83,,47.59359,-54.27349
2017-12-19 04:40:00+00:00,275.0,285.0,3.99,4.96,,47.59359,-54.27349
2017-12-19 04:50:00+00:00,269.0,271.0,4.56,5.07,,47.59359,-54.27349
2017-12-19 05:00:00+00:00,279.0,279.0,5.13,6.3,,47.59359,-54.27349
2017-12-19 05:10:00+00:00,295.0,289.0,4.97,5.84,,47.59359,-54.27349
2017-12-19 05:20:00+00:00,304.0,314.0,3.23,4.25,,47.59359,-54.27349
2017-12-19 05:30:00+00:00,314.0,309.0,3.5,4.5,,47.59359,-54.27349
2017-12-19 05:40:00+00:00,289.0,258.0,1.83,2.5,,47.59359,-54.27349
2017-12-19 05:50:00+00:00,304.0,302.0,3.97,5.58,,47.59359,-54.27349
2017-12-19 06:00:00+00:00,290.0,301.0,3.61,4.49,,47.59359,-54.27349
2017-12-19 06:10:00+00:00,322.0,324.0,2.67,3.35,,47.59359,-54.27349
2017-12-19 06:20:00+00:00,328.0,339.0,2.99,3.77,,47.59359,-54.27349
2017-12-19 06:30:00+00:00,336.0,352.0,2.38,3.27,,47.59359,-54.27349
2017-12-19 06:40:00+00:00,295.0,282.0,2.48,3.25,,47.59359,-54.27349
2017-12-19 06:50:00+00:00,283.0,288.0,2.28,2.95,,47.59359,-54.27349
2017-12-19 07:00:00+00:00,309.0,310.0,1.66,2.01,,47.59359,-54.27349
2017-12-19 07:10:00+00:00,303.0,307.0,1.78,2.62,,47.59359,-54.27349
2017-12-19 07:20:00+00:00,291.0,294.0,1.15,1.56,,47.59359,-54.27349
2017-12-19 07:30:00+00:00,324.0,330.0,1.21,2.11,,47.59359,-54.27349
2017-12-19 07:40:00+00:00,2.0,8.0,0.95,1.28,,47.59359,-54.27349
2017-12-19 07:50:00+00:00,341.0,336.0,1.69,2.26,,47.59359,-54.27349
2017-12-19 08:00:00+00:00,351.0,327.0,1.76,2.56,,47.59359,-54.27349
2017-12-19 08:10:00+00:00,333.0,340.0,2.41,3.14,,47.59359,-54.27349
2017-12-19 08:20:00+00:00,344.0,348.0,1.64,2.41,,47.59359,-54.27349
2017-12-19 08:30:00+00:00,22.0,29.0,0.82,1.24,,47.59359,-54.27349
2017-12-19 08:40:00+00:00,309.0,310.0,1.65,2.16,,47.59359,-54.27349
2017-12-19 08:50:00+00:00,315.0,285.0,0.33,0.65,,47.59359,-54.27349
2017-12-19 09:00:00+00:00,226.0,227.0,0.74,0.91,,47.59359,-54.27349
2017-12-19 09:10:00+00:00,145.0,129.0,0.44,1.3,,47.59359,-54.27349
2017-12-19 09:20:00+00:00,195.0,197.0,1.59,2.69,,47.59359,-54.27349
2017-12-19 09:30:00+00:00,182.0,187.0,1.64,3.23,,47.59359,-54.27349
2017-12-19 09:40:00+00:00,167.0,170.0,2.48,3.04,,47.59359,-54.27349
2017-12-19 09:50:00+00:00,164.0,163.0,3.15,3.77,,47.59359,-54.27349
2017-12-19 10:00:00+00:00,175.0,180.0,2.91,4.27,,47.59359,-54.27349
2017-12-19 10:10:00+00:00,163.0,159.0,3.32,3.92,,47.59359,-54.27349
2017-12-19 10:20:00+00:00,165.0,161.0,2.87,3.52,,47.59359,-54.27349
2017-12-19 10:30:00+00:00,159.0,154.0,2.24,2.82,,47.59359,-54.27349
2017-12-19 10:40:00+00:00,187.0,187.0,3.2,3.85,,47.59359,-54.27349
2017-12-19 10:50:00+00:00,188.0,192.0,2.95,3.57,,47.59359,-54.27349
2017-12-19 11:00:00+00:00,167.0,165.0,2.81,3.51,,47.59359,-54.27349
2017-12-19 11:10:00+00:00,169.0,165.0,3.47,3.92,,47.59359,-54.27349
2017-12-19 11:20:00+00:00,182.0,193.0,3.18,4.05,,47.59359,-54.27349
2017-12-19 11:30:00+00:00,186.0,184.0,3.84,4.86,,47.59359,-54.27349
2017-12-19 11:40:00+00:00,174.0,177.0,3.93,5.2,,47.59359,-54.27349
2017-12-19 11:50:00+00:00,178.0,180.0,4.03,5.0,,47.59359,-54.27349
2017-12-19 12:00:00+00:00,173.0,177.0,4.01,4.85,,47.59359,-54.27349
2017-12-19 12:10:00+00:00,189.0,192.0,3.1,3.65,,47.59359,-54.27349
2017-12-19 12:20:00+00:00,163.0,152.0,3.46,4.17,,47.59359,-54.27349
2017-12-19 12:30:00+00:00,172.0,182.0,3.62,4.76,,47.59359,-54.27349
2017-12-19 12:40:00+00:00,184.0,184.0,4.24,5.0,,47.59359,-54.27349
2017-12-19 12:50:00+00:00,182.0,176.0,3.86,4.34,,47.59359,-54.27349
2017-12-19 13:00:00+00:00,184.0,186.0,5.48,6.21,,47.59359,-54.27349
2017-12-19 13:10:00+00:00,198.0,215.0,5.77,7.63,,47.59359,-54.27349
2017-12-19 13:20:00+00:00,189.0,188.0,4.93,6.05,,47.59359,-54.27349
2017-12-19 13:30:00+00:00,181.0,183.0,5.46,6.17,,47.59359,-54.27349
2017-12-19 13:40:00+00:00,169.0,190.0,4.2,4.88,,47.59359,-54.27349
2017-12-19 13:50:00+00:00,173.0,171.0,3.57,4.07,,47.59359,-54.27349
2017-12-19 14:00:00+00:00,188.0,185.0,3.13,3.92,,47.59359,-54.27349
2017-12-19 14:10:00+00:00,198.0,196.0,3.82,4.4,,47.59359,-54.27349
2017-12-19 14:20:00+00:00,181.0,182.0,3.95,4.37,,47.59359,-54.27349
2017-12-19 14:30:00+00:00,204.0,213.0,2.69,3.08,,47.59359,-54.27349
2017-12-19 14:40:00+00:00,198.0,203.0,2.53,3.05,,47.59359,-54.27349
2017-12-19 14:50:00+00:00,231.0,247.0,1.56,2.38,,47.59359,-54.27349
2017-12-19 15:00:00+00:00,238.0,245.0,1.68,2.61,,47.59359,-54.27349
2017-12-19 15:10:00+00:00,239.0,233.0,2.39,3.32,,47.59359,-54.27349
2017-12-19 15:20:00+00:00,264.0,262.0,2.53,2.87,,47.59359,-54.27349
2017-12-19 15:30:00+00:00,277.0,269.0,2.73,3.23,,47.59359,-54.27349
2017-12-19 15:40:00+00:00,275.0,281.0,3.19,3.67,,47.59359,-54.27349
2017-12-19 15:50:00+00:00,263.0,275.0,3.47,4.13,,47.59359,-54.27349
2017-12-19 16:00:00+00:00,257.0,257.0,2.72,3.41,,47.59359,-54.27349
2017-12-19 16:10:00+00:00,256.0,261.0,3.29,3.72,,47.59359,-54.27349
2017-12-19 16:20:00+00:00,255.0,260.0,3.2,3.55,,47.59359,-54.27349
2017-12-19 16:30:00+00:00,281.0,280.0,4.13,4.67,,47.59359,-54.27349
2017-12-19 16:40:00+00:00,267.0,263.0,3.77,4.41,,47.59359,-54.27349
2017-12-19 16:50:00+00:00,274.0,281.0,4.51,5.44,,47.59359,-54.27349
2017-12-19 17:00:00+00:00,290.0,294.0,4.15,5.28,,47.59359,-54.27349
2017-12-19 17:10:00+00:00,275.0,278.0,3.18,3.59,,47.59359,-54.27349
2017-12-19 17:20:00+00:00,281.0,276.0,3.86,4.63,,47.59359,-54.27349
2017-12-19 17:30:00+00:00,274.0,277.0,3.2,3.94,,47.59359,-54.27349
2017-12-19 17:40:00+00:00,261.0,267.0,3.11,3.62,,47.59359,-54.27349
2017-12-19 17:50:00+00:00,252.0,250.0,2.49,3.04,,47.59359,-54.27349
2017-12-19 18:00:00+00:00,240.0,238.0,2.77,3.13,,47.59359,-54.27349
2017-12-19 18:10:00+00:00,220.0,214.0,2.4,2.93,,47.59359,-54.27349
2017-12-19 18:20:00+00:00,216.0,215.0,3.07,3.78,,47.59359,-54.27349
2017-12-19 18:30:00+00:00,201.0,198.0,2.67,3.16,,47.59359,-54.27349
2017-12-19 18:40:00+00:00,233.0,238.0,1.59,2.09,,47.59359,-54.27349
2017-12-19 18:50:00+00:00,218.0,223.0,1.95,2.55,,47.59359,-54.27349
2017-12-19 19:00:00+00:00,155.0,152.0,2.19,2.63,,47.59359,-54.27349
2017-12-19 19:10:00+00:00,225.0,218.0,5.13,6.3,,47.59359,-54.27349
2017-12-19 19:20:00+00:00,201.0,202.0,6.74,7.36,,47.59359,-54.27349
2017-12-19 19:30:00+00:00,203.0,211.0,5.53,6.4,,47.59359,-54.27349
2017-12-19 19:40:00+00:00,192.0,200.0,4.96,5.43,,47.59359,-54.27349
2017-12-19 19:50:00+00:00,209.0,206.0,7.33,8.3,,47.59359,-54.27349
2017-12-19 20:00:00+00:00,219.0,221.0,7.48,8.44,,47.59359,-54.27349
2017-12-19 20:10:00+00:00,213.0,214.0,7.08,7.85,,47.59359,-54.27349
2017-12-19 20:20:00+00:00,211.0,221.0,6.5,7.82,,47.59359,-54.27349
2017-12-19 20:30:00+00:00,203.0,208.0,6.23,8.17,,47.59359,-54.27349
2017-12-19 20:40:00+00:00,213.0,218.0,6.5,7.31,,47.59359,-54.27349
2017-12-19 20:50:00+00:00,196.0,202.0,5.86,6.97,,47.59359,-54.27349
2017-12-19 21:00:00+00:00,190.0,185.0,6.03,6.95,,47.59359,-54.27349
2017-12-19 21:10:00+00:00,192.0,191.0,5.44,6.1,,47.59359,-54.27349
2017-12-19 21:20:00+00:00,201.0,199.0,4.94,5.63,,47.59359,-54.27349
2017-12-19 21:30:00+00:00,187.0,188.0,5.26,6.15,,47.59359,-54.27349
2017-12-19 21:40:00+00:00,192.0,197.0,5.26,6.26,,47.59359,-54.27349
2017-12-19 21:50:00+00:00,184.0,184.0,5.24,5.77,,47.59359,-54.27349
2017-12-19 22:00:00+00:00,188.0,185.0,5.4,6.32,,47.59359,-54.27349
2017-12-19 22:10:00+00:00,190.0,196.0,6.07,7.05,,47.59359,-54.27349
2017-12-19 22:20:00+00:00,188.0,186.0,5.77,6.63,,47.59359,-54.27349
2017-12-19 22:30:00+00:00,186.0,191.0,6.08,6.74,,47.59359,-54.27349
2017-12-19 22:40:00+00:00,184.0,177.0,5.59,6.19,,47.59359,-54.27349
2017-12-19 22:50:00+00:00,184.0,182.0,5.22,5.87,,47.59359,-54.27349
2017-12-19 23:00:00+00:00,181.0,177.0,5.07,5.57,,47.59359,-54.27349
2017-12-19 23:10:00+00:00,177.0,176.0,4.89,5.53,,47.59359,-54.27349
2017-12-19 23:20:00+00:00,180.0,181.0,5.85,6.48,,47.59359,-54.27349
2017-12-19 23:30:00+00:00,161.0,166.0,5.73,6.44,,47.59359,-54.27349
2017-12-19 23:40:00+00:00,167.0,165.0,6.86,7.46,,47.59359,-54.27349
2017-12-19 23:50:00+00:00,167.0,169.0,7.03,7.52,,47.59359,-54.27349
